Regional Weather Roundup
Issued by NWS State College, PA

Current Version | Previous Version | Text Only | Print | Product List | Glossary On
Versions: 1 2 3 4 5 6 7 8 9 10 11 12 13 14 15 16 17 18 19 20 21 22 23 24 25 26 27 28 29 30 31 32 33 34 35 36 37 38 39 40 41 42 43 44 45 46 47 48 49 50
986
ASUS41 KCTP 231910
RWRCTP

REGIONAL WEATHER ROUNDUP
NATIONAL WEATHER SERVICE STATE COLLEGE PA
300 PM EDT TUE JUL 23 2019

Note: "fair" indicates few or no clouds below 12,000 feet with no
significant weather and/or obstructions to visibility.

* = STATION THAT DOES NOT REPORT PRECIPITATION /E.G. RAIN...SNOW...ETC/
    THUNDER OR FOG.

PAZ002>004-007>009-013>016-020>023-029>032-232000-
WESTERN PENNSYLVANIA

CITY           SKY/WX    TMP DP  RH WIND       PRES   REMARKS
ERIE           FAIR      73  55  53 W13       29.97F
MEADVILLE      FAIR      73  52  47 W9G16     29.98F
FRANKLIN*      FAIR      73  53  49 NW9       29.98F
NEW CASTLE     FAIR      76  53  44 N9        29.98F
BEAVER COUNTY  FAIR      77  53  43 N6        29.98
BUTLER*        FAIR      73  55  53 NW8       29.97S
PITTSBURGH INT FAIR      76  54  46 NW15      29.95F
PITTSBURGH     FAIR      75  59  57 NW10G20   29.94F
INDIANA*       CLOUDY    73  63  68 N7        29.97F
LATROBE        PTSUNNY   73  63  68 NW7       29.94F
WASHINGTON CO* FAIR      75  59  57 NW10      29.99F
$$

PAZ004>006-010>012-017>019-024>028-033>037-041-042-045-046-049>053-232000-
CENTRAL PENNSYLVANIA

CITY           SKY/WX    TMP DP  RH WIND       PRES   REMARKS
BRADFORD       CLOUDY    69  61  75 N6        29.97F
DUBOIS         PTSUNNY   69  58  67 N8        29.95S
CLEARFIELD     FAIR      76  61  59 SE6       29.93F
JOHNSTOWN      FAIR      72  57  59 N7        29.96F
ALTOONA        FAIR      75  59  57 N6        29.94F
STATE COLLEGE  MOSUNNY   73  59  60 E3        29.93S
WILLIAMSPORT   FAIR      80  57  45 VRB7      29.88S
SELINSGROVE    FAIR      78  61  55 NW6       29.90S
FT INDIANTOWN  PTSUNNY   76  63  64 E6        29.89S
CAPITAL CITY   PTSUNNY   79  61  53 NW9       29.89S
HARRISBURG     PTSUNNY   77  62  59 NE7       29.88S
YORK           PTSUNNY   75  63  66 N8        29.90S
$$

PAZ038>040-043-044-047-048-054-055-060>062-067>071-232000-
EASTERN PENNSYLVANIA

CITY           SKY/WX    TMP DP  RH WIND       PRES   REMARKS
SCRANTON       FAIR      79  55  43 N7        29.90R
MOUNT POCONO   FAIR      72  58  61 N12       29.93S
ALLENTOWN      CLOUDY    74  64  71 VRB3      29.89R
QUAKERTOWN*    MOCLDY    72  66  83 NE7       29.90S
READING        PTSUNNY   76  65  68 N7        29.87S
LANCASTER      CLOUDY    76  66  71 NE9       29.89S
COATESVILLE    MOCLDY    72  64  78 NW3       29.91S
POTTSTOWN      LGT RAIN  69  67  93 CALM      29.90S FOG
BLUE BELL      PTSUNNY   74  66  75 CALM      29.88S HAZE
DOYLESTOWN     PTSUNNY   75  63  66 NE3       29.88S
WILLOW GROVE   NOT AVBL
NORTH PHILA    CLOUDY    76  65  68 NW6       29.89R
PHILADELPHIA   CLOUDY    76  64  66 SE3       29.87S
$$




USA.gov is the U.S. government's official web portal to all federal, state and local government web resources and services.